Waarnemingen

Advertentie
Mijn weer
Arjeplog, Zweden (2124): temperatuur & dauwpunt: 15.10.2018 16:00:00 - 21.10.2018 16:00:00 (CEST)Arjeplog, Zweden (2124): windsnelheid & windstoten: 15.10.2018 16:00:00 - 21.10.2018 16:00:00 (CEST)Arjeplog, Zweden (2124): windrichting: 15.10.2018 16:00:00 - 21.10.2018 16:00:00 (CEST)Arjeplog, Zweden (2124): luchtdruk: 15.10.2018 16:00:00 - 21.10.2018 16:00:00 (CEST)Arjeplog, Zweden (2124): zicht: 15.10.2018 16:00:00 - 21.10.2018 16:00:00 (CEST)Arjeplog, Zweden (2124): neerslag: 15.10.2018 16:00:00 - 21.10.2018 16:00:00 (CEST)
Datum & Tijd tt [°C] td [°C] ff [km/u] ff [kn] fx [km/u] fx [kn] dd ppp [hPa] vv [km] rr [mm]
21.10.2018 16:00:00 5,9 0,8 15 8 35 19 W 1000,6 38 0,0
21.10.2018 15:00:00 7,3 0,3 17 9 33 18 WZW 1000,3 34 0,0
21.10.2018 14:00:00 7,4 0,1 20 11 40 22 ZW 1000,6 26 0,0
21.10.2018 13:00:00 6,9 1,0 13 7 39 21 WZW 1001,1 25 0,0
21.10.2018 12:00:00 6,5 1,8 13 7 25 13 ZW 1001,4 37 0,0
21.10.2018 11:00:00 5,4 3,2 13 7 31 17 ZZW 1001,9 50 0,0
21.10.2018 10:00:00 4,5 3,2 16 9 31 17 Z 1002,6 50 0,0
21.10.2018 09:00:00 4,5 2,8 16 9 30 16 Z 1002,8 47 0,0
21.10.2018 08:00:00 3,9 2,6 12 6 32 17 Z 1003,0 50 0,0
21.10.2018 07:00:00 3,6 2,4 16 9 32 17 Z 1003,5 50 0,0
21.10.2018 06:00:00 3,4 1,9 15 8 35 19 Z 1004,2 50 0,0
21.10.2018 05:00:00 3,5 1,9 16 9 37 20 Z 1005,1 50 0,0
21.10.2018 04:00:00 3,3 1,8 19 11 36 19 Z 1006,4 50 0,1
21.10.2018 03:00:00 3,0 1,8 11 6 29 16 Z 1008,3 43 0,1
21.10.2018 02:00:00 3,1 1,3 14 8 32 17 Z 1009,6 38 0,0
21.10.2018 01:00:00 3,0 1,0 15 8 26 14 Z 1011,4 50 0,0
21.10.2018 00:00:00 3,0 1,0 13 7 22 12 ZZO 1012,3 50 0,0
20.10.2018 23:00:00 2,1 0,8 6 3 14 8 ZO 1013,5 49 0,0
20.10.2018 22:00:00 3,1 0,8 8 4 16 9 ZZW 1014,1 50 0,0
20.10.2018 21:00:00 2,6 0,8 6 4 13 7 ZZO 1015,5 50 0,0
20.10.2018 20:00:00 0,0 -0,4 4 2 11 6 ZZW 1016,6 50 0,0
20.10.2018 19:00:00 1,2 0,5 6 3 10 6 Z 1016,5 50 0,0
20.10.2018 18:00:00 3,0 1,4 4 2 10 5 ZZO 1016,9 50 0,0
20.10.2018 17:00:00 3,6 2,0 5 3 10 5 Z 1016,9 50 0,0
20.10.2018 16:00:00 4,4 1,8 5 3 16 9 ZO 1016,8 50 0,0
20.10.2018 15:00:00 5,9 2,5 9 5 14 8 WZW 1017,0 50 0,0
20.10.2018 14:00:00 4,9 2,9 6 3 12 6 ZZW 1016,9 50 0,0
20.10.2018 13:00:00 4,1 2,9 6 4 13 7 ZZW 1016,9 50 0,0
20.10.2018 12:00:00 3,7 2,7 9 5 13 7 Z 1017,0 45 0,0
20.10.2018 11:00:00 3,1 2,5 8 4 15 8 Z 1017,2 45 0,0
20.10.2018 10:00:00 2,6 2,0 4 2 14 8 ZZO 1016,8 50 0,0
20.10.2018 09:00:00 2,3 2,2 8 4 11 6 Z 1016,6 50 0,0
20.10.2018 08:00:00 0,8 0,7 0 0 6 3 N 1016,7 11 0,0
20.10.2018 07:00:00 1,6 1,0 4 2 9 5 ZZO 1016,6 38 0,0
20.10.2018 06:00:00 2,2 1,9 4 2 9 5 Z 1016,6 47 0,0
20.10.2018 05:00:00 2,2 1,9 0 0 6 4 N 1016,7 28 0,1
20.10.2018 04:00:00 2,1 2,0 3 2 6 4 ZZO 1016,9 12 0,1
20.10.2018 03:00:00 1,4 1,3 2 1 5 3 ZO 1016,8 27 0,0
20.10.2018 02:00:00 1,3 1,0 0 0 1 1 N 1017,0 49 0,0
20.10.2018 01:00:00 1,6 1,2 0 0 6 3 N 1017,1 35 0,1
20.10.2018 00:00:00 2,4 2,1 2 1 5 3 ZZW 1017,2 16 0,2
19.10.2018 23:00:00 2,8 1,9 3 1 6 4 WZW 1017,2 25 0,0
19.10.2018 22:00:00 2,8 1,8 4 2 8 4 WZW 1017,4 34 0,2
19.10.2018 21:00:00 1,8 0,0 0 0 4 2 N 1017,4 50 0,0
19.10.2018 20:00:00 2,8 0,3 6 3 9 5 ZW 1017,0 50 0,0
19.10.2018 19:00:00 3,2 -0,1 5 3 15 8 W 1016,9 50 0,0
19.10.2018 18:00:00 3,7 -0,7 5 3 18 10 W 1016,6 50 0,0
19.10.2018 17:00:00 4,4 -0,8 10 5 18 10 W 1016,2 50 0,0
19.10.2018 16:00:00 6,4 -0,6 9 5 19 11 W 1015,6 50 0,0
19.10.2018 15:00:00 6,9 -0,3 9 5 24 13 WNW 1015,5 49 0,0
19.10.2018 14:00:00 7,9 0,1 11 6 26 14 W 1015,4 49 0,0
19.10.2018 13:00:00 7,7 0,7 12 6 23 13 W 1015,1 47 0,0
19.10.2018 12:00:00 7,4 1,0 9 5 23 12 W 1014,9 42 0,0
19.10.2018 11:00:00 7,0 1,1 6 3 19 10 W 1014,3 50 0,0
19.10.2018 10:00:00 5,0 0,9 3 2 24 13 W 1013,9 50 0,0
19.10.2018 09:00:00 4,3 1,0 11 6 24 13 W 1013,1 50 0,0
19.10.2018 08:00:00 3,2 0,8 9 5 16 9 W 1012,6 50 0,0
19.10.2018 07:00:00 2,6 0,0 3 1 36 20 ZZW 1012,3 50 0,0
19.10.2018 06:00:00 4,8 0,6 15 8 32 17 WNW 1010,5 50 0,0
19.10.2018 05:00:00 4,9 0,7 11 6 34 18 NW 1009,9 50 0,0
19.10.2018 04:00:00 4,3 0,6 10 6 33 18 WNW 1009,4 50 0,0
19.10.2018 03:00:00 5,1 0,8 17 9 46 25 W 1008,6 50 0,0
19.10.2018 02:00:00 4,5 0,5 10 5 26 14 W 1008,4 50 0,0
19.10.2018 01:00:00 5,1 0,5 13 7 28 15 W 1008,0 50 0,0
19.10.2018 00:00:00 5,2 0,2 14 7 45 25 W 1007,6 50 0,0
18.10.2018 23:00:00 5,4 0,0 20 11 49 26 W 1006,8 50 0,0
18.10.2018 22:00:00 5,0 0,2 10 5 31 17 ZW 1006,9 50 0,0
18.10.2018 21:00:00 4,8 0,4 12 7 24 13 WZW 1006,5 50 0,0
18.10.2018 20:00:00 4,3 0,8 11 6 24 13 WZW 1006,4 50 0,0
18.10.2018 19:00:00 4,4 0,9 12 6 29 16 ZW 1006,4 50 0,0
18.10.2018 18:00:00 4,8 0,9 15 8 26 14 WZW 1006,3 50 0,0
18.10.2018 17:00:00 5,2 0,8 11 6 29 15 ZW 1005,9 50 0,0
18.10.2018 16:00:00 5,3 0,3 13 7 32 17 ZW 1005,9 50 0,0
18.10.2018 15:00:00 5,8 -0,3 15 8 29 16 ZW 1005,9 50 0,0
18.10.2018 14:00:00 6,6 -0,6 16 9 33 18 ZW 1005,8 42 0,0
18.10.2018 13:00:00 6,1 -0,6 14 7 27 15 ZW 1006,5 43 0,0
18.10.2018 12:00:00 5,4 0,4 13 7 24 13 ZZW 1006,7 43 0,0
18.10.2018 11:00:00 5,2 0,4 14 7 26 14 ZW 1007,1 43 0,0
18.10.2018 10:00:00 4,5 0,5 10 5 21 11 ZW 1007,7 50 0,0
18.10.2018 09:00:00 3,0 0,2 9 5 19 10 Z 1007,9 49 0,0
18.10.2018 08:00:00 2,5 0,1 8 4 17 9 Z 1007,8 50 0,0
18.10.2018 07:00:00 3,4 -0,2 7 4 24 13 ZW 1007,5 44 0,0
18.10.2018 06:00:00 3,7 -0,1 17 9 27 14 ZW 1007,5 50 0,0
18.10.2018 05:00:00 4,2 0,5 5 3 20 11 WZW 1008,0 47 0,0
18.10.2018 04:00:00 4,5 0,1 11 6 23 12 ZW 1008,1 48 0,0
18.10.2018 03:00:00 4,8 0,7 16 8 24 13 ZW 1008,0 41 0,0
18.10.2018 02:00:00 5,5 1,8 13 7 21 11 ZW 1007,9 50 0,0
18.10.2018 01:00:00 4,8 3,1 6 4 16 8 ZZW 1008,2 50 0,0
18.10.2018 00:00:00 3,7 3,3 5 3 14 8 NO 1008,6 50 0,0
17.10.2018 23:00:00 4,1 3,1 7 4 19 10 Z 1008,2 50 0,0
17.10.2018 22:00:00 3,8 3,1 8 4 14 8 Z 1008,1 50 0,0
17.10.2018 21:00:00 3,6 2,9 8 4 18 10 Z 1008,1 50 0,0
17.10.2018 20:00:00 3,5 2,9 7 4 16 9 Z 1008,2 50 0,0
17.10.2018 19:00:00 3,1 2,8 6 4 13 7 Z 1008,2 50 0,0
17.10.2018 18:00:00 3,1 2,5 5 3 9 5 Z 1008,8 50 0,0
17.10.2018 17:00:00 3,7 3,0 4 2 9 5 Z 1008,8 50 0,0
17.10.2018 16:00:00 4,4 3,2 3 2 9 5 ZZW 1008,7 19 0,1
17.10.2018 15:00:00 4,4 3,2 6 4 11 6 Z 1009,0 50 0,0
17.10.2018 14:00:00 4,1 3,2 8 4 19 11 ZZW 1009,5 44 0,0
17.10.2018 13:00:00 3,7 3,0 11 6 19 10 Z 1010,0 16 0,0
17.10.2018 12:00:00 3,7 2,7 11 6 21 12 Z 1010,1 25 0,0
17.10.2018 11:00:00 3,5 2,5 10 5 22 12 Z 1010,9 50 0,0
17.10.2018 10:00:00 3,6 2,0 12 6 22 12 Z 1010,6 50 0,0
17.10.2018 09:00:00 3,3 1,5 4 2 26 14 Z 1011,1 50 0,1
17.10.2018 08:00:00 3,2 1,1 9 5 21 11 ZZO 1011,3 50 0,0
17.10.2018 07:00:00 3,4 0,8 8 4 21 11 ZZO 1011,6 50 0,0
17.10.2018 06:00:00 3,3 0,9 12 6 18 10 ZZO 1011,8 50 0,0
17.10.2018 05:00:00 3,3 1,3 9 5 19 10 ZZO 1012,9 50 0,0
17.10.2018 04:00:00 3,5 1,4 8 5 20 11 Z 1013,8 50 0,0
17.10.2018 03:00:00 3,5 1,7 13 7 26 14 ZZO 1014,7 50 0,0
17.10.2018 02:00:00 3,1 1,6 5 3 13 7 Z 1015,5 50 0,0
17.10.2018 01:00:00 2,5 1,2 5 3 15 8 ZZO 1016,0 50 0,0
17.10.2018 00:00:00 3,1 1,1 8 4 18 10 Z 1016,2 50 0,0
16.10.2018 23:00:00 3,5 0,5 10 6 19 10 Z 1016,6 50 0,0
16.10.2018 22:00:00 3,2 0,9 6 3 12 6 Z 1016,9 50 0,0
16.10.2018 21:00:00 3,0 0,4 6 4 14 8 Z 1017,7 50 0,0
16.10.2018 20:00:00 2,5 0,4 4 2 11 6 ZZO 1017,7 50 0,0
16.10.2018 19:00:00 3,7 1,1 5 3 9 5 Z 1017,7 49 0,0
16.10.2018 18:00:00 4,2 1,1 6 4 11 6 Z 1017,3 50 0,0
16.10.2018 17:00:00 4,8 0,9 4 2 16 9 ZZW 1017,0 50 0,0
16.10.2018 16:00:00 5,3 0,7 12 6 18 10 ZW 1016,6 50 0,0
16.10.2018 15:00:00 5,4 0,6 5 3 22 12 Z 1016,5 50 0,0
16.10.2018 14:00:00 5,5 1,2 10 6 15 8 ZW 1015,8 50 0,0
16.10.2018 13:00:00 5,5 0,7 3 2 16 9 W 1016,0 50 0,0
16.10.2018 12:00:00 4,7 0,8 9 5 16 8 W 1015,5 49 0,0
16.10.2018 11:00:00 3,5 1,1 3 1 24 13 ONO 1015,4 50 0,0
16.10.2018 10:00:00 3,2 0,3 13 7 20 11 ZW 1014,5 50 0,0
16.10.2018 09:00:00 -0,3 -0,6 2 1 16 9 ZZW 1014,6 48 0,0
16.10.2018 08:00:00 -0,1 -0,5 9 5 16 9 ZZW 1013,9 50 0,0
16.10.2018 07:00:00 -1,4 -1,8 3 2 13 7 Z 1014,0 50 0,0
16.10.2018 06:00:00 -1,5 -2,3 4 2 13 7 WZW 1013,7 50 0,0
16.10.2018 05:00:00 0,1 0,0 8 4 11 6 ZZW 1013,5 50 0,0
16.10.2018 04:00:00 -2,1 -2,5 3 2 7 4 W 1013,6 50 0,0
16.10.2018 03:00:00 -1,6 -1,9 3 2 7 4 W 1013,6 50 0,0
16.10.2018 02:00:00 -1,7 -2,0 4 2 5 3 ZW 1013,5 50 0,0
16.10.2018 01:00:00 -1,2 -1,5 0 0 6 3 N 1013,5 50 0,0
16.10.2018 00:00:00 -0,5 -0,8 3 1 4 2 ZZW 1013,3 50 0,0
15.10.2018 23:00:00 -0,4 -0,5 4 2 5 3 WNW 1013,6 50 0,0
15.10.2018 22:00:00 0,0 -0,6 3 2 5 3 ZO 1013,5 50 0,0
15.10.2018 21:00:00 0,5 -0,1 3 2 5 3 ZW 1014,2 50 0,0
15.10.2018 20:00:00 0,8 -0,4 3 1 7 4 W 1013,6 44 0,0
15.10.2018 19:00:00 2,2 0,4 5 3 8 4 WNW 1013,3 50 0,0
15.10.2018 18:00:00 2,7 0,9 3 2 6 3 W 1014,0 50 0,0
15.10.2018 17:00:00 4,6 0,7 0 0 11 6 N 1013,4 48 0,0
15.10.2018 16:00:00 6,7 1,2 4 2 10 6 W 1012,9 50 0,0

tt = temperatuur
td = dauwpunt
ff = windsnelheid
fx = windstoten
dd = windrichting
ppp = luchtdruk
vv = zicht
rr = neerslag

Weerstations in de omgeving